(54975) = 2001 PL47

Discovered at Haleakala on 2001-08-13 by NEAT.

Orbit

Orbit type: Main Belt

Note: WebGL enabled browser required.

epoch2024-03-31.0
epoch JD2460400.5
perihelion date2021-07-15.20005
perihelion JD2459410.70005
argument of perihelion (°)273.26958
ascending node (°)82.35466
inclination (°)13.06709
eccentricity0.0813247
perihelion distance (AU)2.6680588
Tisserand w.r.t. Jupiter3.2
ΔV w.r.t. Earth (km/sec)11.0
semimajor axis (AU)2.9042457
mean anomaly (°)197.10674
mean daily motion (°/day)0.19913800
aphelion distance (AU)3.140
period (years)4.95
P-vector [x]0.97146305
P-vector [y]0.02294197
P-vector [z]-0.23607881
Q-vector [x]0.07776097
Q-vector [y]0.90949814
Q-vector [z]0.40837037
absolute magnitude14.34
phase slope0.15
uncertainty0
referenceE2024-H23
observations used1304
oppositions21
arc length (days)9185
first opposition used1999
last opposition used2024
residual rms (arc-secs)0.67
perturbers coarse indicatorM-v
perturbers precise indicator003Ek
first observation date used1999-02-23.0
last observation date used2024-04-17.0
computer nameMPCLINUX
JD of orbit computation2456877.893488
perihelion JD uncertainty (days)1.6793E-04
argument of perihelion uncertainty (°)4.1099E-05
ascending node uncertainty (°)2.7575E-05
inclination uncertainty (°)5.0253E-06
eccentricity uncertainty 6.0112E-08
perihelion distance uncertainty (AU)1.7396E-07
Minimum Orbit Intersection Distances (in AU)
for orbit epoch: 2460400.5, reference: E2024-H23
Mercury2.28654
Venus1.9554
Earth1.7044
Mars1.30127
Jupiter2.22397
Saturn6.10892
Uranus15.3881
Neptune27.074

Observations

1287 total observations over interval: 1999 02 23.38579 – 2024 03 19.468461
These data are available for download (format description).

Date (UT) J2000 RA J2000 Dec Magn Location Ref
1999 02 23.38579 12 11 44.06 +19 01 07.8 18.5 R 699 – Lowell Observatory-LONEOS MPS 58907
1999 02 23.40618 12 11 43.21 +19 01 15.6   699 – Lowell Observatory-LONEOS MPS 58907
1999 02 23.42662 12 11 42.54 +19 01 25.0   699 – Lowell Observatory-LONEOS MPS 58907
1999 03 21.31907 11 52 03.85 +21 32 57.7 18.3 R 699 – Lowell Observatory-LONEOS MPS 58907
1999 03 21.33968 11 52 02.83 +21 33 02.6   699 – Lowell Observatory-LONEOS MPS 58907
1999 03 21.36028 11 52 01.87 +21 33 08.9   699 – Lowell Observatory-LONEOS MPS 58907
2000 05 11.37766 16 56 59.85 -17 17 32.8 18.0   704 – Lincoln Laboratory ETS, New Mexico MPS 35903
2000 05 11.38918 16 56 59.39 -17 17 31.9 18.4   704 – Lincoln Laboratory ETS, New Mexico MPS 35903
2000 05 11.41228 16 56 58.36 -17 17 35.3 18.0   704 – Lincoln Laboratory ETS, New Mexico MPS 35903
2000 06 07.25338 16 33 32.68 -18 07 52.8 18.7   704 – Lincoln Laboratory ETS, New Mexico MPS 35903
2000 06 07.26646 16 33 31.90 -18 07 55.7 18.6   704 – Lincoln Laboratory ETS, New Mexico MPS 35903
2000 06 07.29372 16 33 30.31 -18 07 58.6 18.8   704 – Lincoln Laboratory ETS, New Mexico MPS 35903
2000 06 24.24594 16 19 09.44 -18 48 05.2 18.8   704 – Lincoln Laboratory ETS, New Mexico MPS 35903
2000 06 24.27151 16 19 08.32 -18 48 07.4 19.4   704 – Lincoln Laboratory ETS, New Mexico MPS 35903
2000 06 24.28431 16 19 07.76 -18 48 09.4 19.6   704 – Lincoln Laboratory ETS, New Mexico MPS 35903
2000 06 24.29702 16 19 07.20 -18 48 12.7 19.2   704 – Lincoln Laboratory ETS, New Mexico MPS 35903
2001 08 13.47599 00 25 43.76 -18 05 30.0 19.2   608 – Haleakala-AMOS MPS 33473
2001 08 13.48699 00 25 43.59 -18 05 34.8 19.1   608 – Haleakala-AMOS MPS 33473
2001 08 13.49813 00 25 43.45 -18 05 39.8 19.1   608 – Haleakala-AMOS MPS 33473
2001 08 19.34044 00 24 11.15 -18 48 22.3 18.4   704 – Lincoln Laboratory ETS, New Mexico MPS 34559
2001 08 19.35307 00 24 10.86 -18 48 27.8 18.1   704 – Lincoln Laboratory ETS, New Mexico MPS 34559
2001 08 19.36574 00 24 10.62 -18 48 33.5 18.4   704 – Lincoln Laboratory ETS, New Mexico MPS 34559
2001 08 19.37846 00 24 10.32 -18 48 38.6 18.4   704 – Lincoln Laboratory ETS, New Mexico MPS 34559
2001 08 19.39115 00 24 10.01 -18 48 45.3 18.5   704 – Lincoln Laboratory ETS, New Mexico MPS 34559
2001 08 20.47268 00 23 47.35 -18 56 47.8 18.7   608 – Haleakala-AMOS MPS 33473
2001 08 20.48394 00 23 47.10 -18 56 52.9 18.9   608 – Haleakala-AMOS MPS 33473
2001 08 20.49484 00 23 46.83 -18 56 57.5 19.0   608 – Haleakala-AMOS MPS 33473
2001 09 11.27008 00 10 49.90 -21 29 20.2 18.0   704 – Lincoln Laboratory ETS, New Mexico MPS 34559
2001 09 11.28393 00 10 49.24 -21 29 25.6 18.6   704 – Lincoln Laboratory ETS, New Mexico MPS 34559
2001 09 11.29893 00 10 48.48 -21 29 30.5 18.9   704 – Lincoln Laboratory ETS, New Mexico MPS 34559
2001 09 11.31367 00 10 47.79 -21 29 36.0 18.5   704 – Lincoln Laboratory ETS, New Mexico MPS 34559
2001 09 11.32763 00 10 47.11 -21 29 40.5 19.1   704 – Lincoln Laboratory ETS, New Mexico MPS 34559
2001 10 15.17565 23 44 49.70 -22 39 53.1 18.5   704 – Lincoln Laboratory ETS, New Mexico MPS 37737
2001 10 15.19113 23 44 49.15 -22 39 51.3 18.7   704 – Lincoln Laboratory ETS, New Mexico MPS 37737
2001 10 15.20656 23 44 48.58 -22 39 49.2 18.9   704 – Lincoln Laboratory ETS, New Mexico MPS 37737
2001 10 15.22226 23 44 48.02 -22 39 47.6 18.9   704 – Lincoln Laboratory ETS, New Mexico MPS 37737
2001 10 15.23885 23 44 47.43 -22 39 45.3 19.1   704 – Lincoln Laboratory ETS, New Mexico MPS 37737
2002 10 11.42708 06 44 44.02 +22 20 33.6 19.4   704 – Lincoln Laboratory ETS, New Mexico MPS 63208
2002 10 11.44308 06 44 44.69 +22 20 34.7 20.0   704 – Lincoln Laboratory ETS, New Mexico MPS 63208
2002 10 11.45910 06 44 45.24 +22 20 37.4 19.8   704 – Lincoln Laboratory ETS, New Mexico MPS 63208
2002 10 11.47522 06 44 45.83 +22 20 38.4 19.8   704 – Lincoln Laboratory ETS, New Mexico MPS 63208
2002 11 05.33545 06 53 45.09 +23 32 23.3 19.8   704 – Lincoln Laboratory ETS, New Mexico MPS 65813
2002 11 05.35254 06 53 45.01 +23 32 27.8 19.8   704 – Lincoln Laboratory ETS, New Mexico MPS 65813
2002 11 05.36971 06 53 45.07 +23 32 31.6 19.2   704 – Lincoln Laboratory ETS, New Mexico MPS 65813
2002 11 05.38691 06 53 45.05 +23 32 34.6 19.1   704 – Lincoln Laboratory ETS, New Mexico MPS 65813
2002 12 14.29308 06 35 20.99 +26 35 30.6 18.3   704 – Lincoln Laboratory ETS, New Mexico MPS 67832
2002 12 14.30783 06 35 20.12 +26 35 35.1 18.4   704 – Lincoln Laboratory ETS, New Mexico MPS 67832
2002 12 14.32225 06 35 19.33 +26 35 39.9 18.6   704 – Lincoln Laboratory ETS, New Mexico MPS 67832
2002 12 14.33666 06 35 18.49 +26 35 43.9 18.5   704 – Lincoln Laboratory ETS, New Mexico MPS 67832
2002 12 14.35111 06 35 17.69 +26 35 48.1 18.5   704 – Lincoln Laboratory ETS, New Mexico MPS 67832
2002 12 30.32255 06 19 28.67 +27 50 42.8 18.4   704 – Lincoln Laboratory ETS, New Mexico MPS 69758
2002 12 30.33768 06 19 27.70 +27 50 46.8 18.6   704 – Lincoln Laboratory ETS, New Mexico MPS 69758
2002 12 30.35275 06 19 26.77 +27 50 50.6 18.5   704 – Lincoln Laboratory ETS, New Mexico MPS 69758
2003 01 05.23298 06 13 34.77 +28 14 03.0 18.3   704 – Lincoln Laboratory ETS, New Mexico MPS 69758
2003 01 05.24854 06 13 33.82 +28 14 06.2 18.2   704 – Lincoln Laboratory ETS, New Mexico MPS 69758
2003 01 05.26406 06 13 32.87 +28 14 10.1 18.7   704 – Lincoln Laboratory ETS, New Mexico MPS 69758
2003 01 05.27951 06 13 31.90 +28 14 12.6 19.0   704 – Lincoln Laboratory ETS, New Mexico MPS 69758
2003 01 05.29506 06 13 30.96 +28 14 16.6 18.9   704 – Lincoln Laboratory ETS, New Mexico MPS 69758
2003 01 07.22465 06 11 39.57 +28 21 14.3 18.6   704 – Lincoln Laboratory ETS, New Mexico MPS 69758
2003 01 07.25459 06 11 37.82 +28 21 20.4 19.1   704 – Lincoln Laboratory ETS, New Mexico MPS 69758
2003 01 07.26958 06 11 36.94 +28 21 23.8 19.0   704 – Lincoln Laboratory ETS, New Mexico MPS 69758
2003 01 09.19073 06 09 48.78 +28 27 59.9 19.5   704 – Lincoln Laboratory ETS, New Mexico MPS 69758
2003 01 09.20585 06 09 47.92 +28 28 04.3 19.2   704 – Lincoln Laboratory ETS, New Mexico MPS 69758
2003 01 09.22109 06 09 47.14 +28 28 06.7 19.8   704 – Lincoln Laboratory ETS, New Mexico MPS 69758
2003 01 09.23695 06 09 46.23 +28 28 10.4 19.5   704 – Lincoln Laboratory ETS, New Mexico MPS 69758
2004 02 16.33546 12 31 44.40 +16 11 25.0 18.6   704 – Lincoln Laboratory ETS, New Mexico MPS 99759
2004 02 16.34769 12 31 44.11 +16 11 29.7 19.2   704 – Lincoln Laboratory ETS, New Mexico MPS 99759
2004 02 16.35928 12 31 43.81 +16 11 33.9 19.4   704 – Lincoln Laboratory ETS, New Mexico MPS 99759
2004 02 16.37101 12 31 43.48 +16 11 39.6 19.7   704 – Lincoln Laboratory ETS, New Mexico MPS 99759
2004 02 16.38264 12 31 43.27 +16 11 44.3 19.3   704 – Lincoln Laboratory ETS, New Mexico MPS 99759
2004 03 14.32051 12 14 52.47 +19 07 24.0 18.3   704 – Lincoln Laboratory ETS, New Mexico MPS 101847
2004 03 14.33156 12 14 51.87 +19 07 27.5 19.0   704 – Lincoln Laboratory ETS, New Mexico MPS 101847
2004 03 14.34246 12 14 51.37 +19 07 30.3 18.8   704 – Lincoln Laboratory ETS, New Mexico MPS 101847
2004 03 14.35342 12 14 50.80 +19 07 33.6 18.8   704 – Lincoln Laboratory ETS, New Mexico MPS 101847
2004 03 25.28190 12 05 54.50 +19 57 29.7 18.8   704 – Lincoln Laboratory ETS, New Mexico MPS 102769
2004 03 25.29250 12 05 54.00 +19 57 31.9 18.7   704 – Lincoln Laboratory ETS, New Mexico MPS 102769
2004 03 25.30289 12 05 53.45 +19 57 34.2 19.1   704 – Lincoln Laboratory ETS, New Mexico MPS 102769
2004 03 25.31339 12 05 52.89 +19 57 36.7 19.2   704 – Lincoln Laboratory ETS, New Mexico MPS 102769
2004 04 14.23553 11 51 11.84 +20 28 49.4 18.9   704 – Lincoln Laboratory ETS, New Mexico MPS 104768
2004 04 14.24998 11 51 11.31 +20 28 49.7 19.3   704 – Lincoln Laboratory ETS, New Mexico MPS 104768
2004 04 14.26189 11 51 10.83 +20 28 48.5 18.5   704 – Lincoln Laboratory ETS, New Mexico MPS 104768
2004 04 14.29141 11 51 09.73 +20 28 45.9 19.2   704 – Lincoln Laboratory ETS, New Mexico MPS 104768
2004 04 14.29906 11 51 09.47 +20 28 47.0 19.1 R 703 – Catalina Sky Survey MPS 104768
2004 04 14.31069 11 51 09.07 +20 28 47.5 18.4 R 703 – Catalina Sky Survey MPS 104768
2004 04 14.32224 11 51 08.53 +20 28 46.4 18.9 R 703 – Catalina Sky Survey MPS 104768
